Regional Weather Roundup
Issued by NWS Binghamton, NY

Home | Current Version | Previous Version | Text Only | Print | Product List | Glossary On
Versions: 1 2 3 4 5 6 7 8 9 10 11 12 13 14 15 16 17 18 19 20 21 22 23 24 25 26 27 28 29 30 31 32 33 34 35 36 37 38 39 40 41 42 43 44 45 46 47 48 49 50
000
ASUS41 KBGM 290010
RWRBGM
RWRBGM
BINGHAMTON REGIONAL WEATHER ROUNDUP
NATIONAL WEATHER SERVICE BINGHAMTON NY
700 PM EST WED JAN 28 2015

Note: "fair" indicates few or no clouds below 12,000 feet with no
significant weather and/or obstructions to visibility.

* = Station(s) that does not report precipitation, such as rain,
snow, etc, also no thunder or fog.

!NYZ009-015>018-022>025-036-037-044>046-055>057-062-290100
...CENTRAL NEW YORK...

CITY           SKY/WX    TMP DP  RH WIND       PRES   REMARKS
BINGHAMTON     CLEAR     16   5  62 NW7       30.21R WCI   6
CORTLAND       FAIR      10   5  79 CALM      30.27R
DANSVILLE      PTCLDY    12   4  70 S6        30.30R WCI   3
ELMIRA         CLEAR     15   4  61 CALM      30.28R
ITHACA         PTCLDY    11   5  76 CALM      30.27S
HAMILTON       CLEAR     12   3  67 CALM      30.25
MONTICELLO     CLEAR     19   0  42 CALM      30.16R
NORWICH        CLEAR     10   1  67 CALM      30.27R
ONEONTA        CLEAR     16   0  48 NW7       30.18R WCI   6
PENN YAN       PTCLDY    -2  -9  72 SE3       30.27R
ROME           CLEAR     13  -2  51 NW5       30.32R WCI   5
SIDNEY         CLEAR     19   1  45 CALM      30.26R
SYRACUSE       CLEAR     11   2  67 CALM      30.31R
$$

!PAZ038>040-043-044-047-048-072-290100
...NORTHEAST PENNSYLVANIA...

CITY           SKY/WX    TMP DP  RH WIND       PRES   REMARKS
HAZLETON       FAIR      25   1  36 NW10G16   30.21R WCI  15
SCRANTON       CLEAR     24   4  42 N14G26    30.24R WCI  12
TOWANDA*         N/A     21   1  42 CALM      30.29R
$$
&&
KEY
WCI = WIND CHILL INDEX
VSB = VISIBILITY
HX  = HEAT INDEX
$$



USA.gov is the U.S. government's official web portal to all federal, state and local government web resources and services.